Location: Unspecified
(0.0000°N, 0.0000°E)
Time: 00:34:56
(UTC+00:00)

Vanguard 2 Rocket - All Passes

Search period start: 28 April 2017 00:00
Search period end: 08 May 2017 00:00
Orbit: 554 x 3328 km, 32.9° (Epoch: 26 April)

Date Brightness Start Highest point End Pass type
(mag) Time Alt. Az. Time Alt. Az. Time Alt. Az.
28 Apr - 01:25:12 10° W 01:28:41 27° SSW 01:33:08 10° SSE night (unlit)
28 Apr - 08:13:21 10° SSW 08:24:23 23° SSE 08:38:13 10° ESE daylight
28 Apr - 10:26:25 10° SW 10:44:08 57° SE 11:03:21 10° ENE daylight
28 Apr - 12:43:06 10° WSW 13:03:20 70° NW 13:20:19 10° NE daylight
28 Apr - 15:06:49 10° W 15:21:49 28° NW 15:33:02 10° NNE daylight
28 Apr - 22:14:29 10° N 22:16:26 12° NNE 22:18:13 10° NE night (unlit)
29 Apr - 00:25:40 10° WNW 00:29:29 52° SSW 00:33:52 10° SE night (unlit)
29 Apr - 07:14:59 10° S 07:22:11 16° SSE 07:31:02 10° ESE daylight
29 Apr - 09:26:30 10° SSW 09:41:50 43° SE 10:00:28 10° E daylight
29 Apr - 11:41:26 10° SW 12:01:04 88° NW 12:19:51 10° NE daylight
29 Apr - 14:01:57 10° W 14:20:00 39° NW 14:34:03 10° NNE daylight
29 Apr - 16:33:19 10° NW 16:39:14 13° NNW 16:44:15 10° N daylight
29 Apr - 23:26:24 10° NW 23:30:32 65° NE 23:34:31 10° ESE night (unlit)
30 Apr - 01:42:13 10° SW 01:43:52 12° SSW 01:45:42 10° S night (unlit)
30 Apr - 08:27:10 10° SSW 08:39:47 31° SE 08:56:11 10° E daylight
30 Apr - 10:40:37 10° SW 10:58:42 75° SE 11:18:36 10° ENE daylight
30 Apr - 12:58:32 10° WSW 13:17:54 53° NW 13:34:27 10° NE daylight
30 Apr - 15:25:13 10° WNW 15:37:16 20° NNW 15:46:44 10° NNE daylight
30 Apr - 22:27:18 10° NNW 22:31:28 29° NNE 22:34:57 10° E night (unlit)
01 May - 00:41:20 10° W 00:44:19 20° SSW 00:47:38 10° SSE night (unlit)
01 May - 07:28:33 10° SSW 07:37:58 21° SSE 07:50:20 10° ESE daylight
01 May - 09:40:31 10° SW 09:56:32 58° SE 10:16:23 10° ENE daylight
01 May - 11:56:19 10° WSW 12:15:35 68° NW 12:34:13 10° NE daylight
01 May - 14:19:08 10° W 14:35:07 29° NNW 14:47:55 10° NNE daylight
01 May - 21:28:17 10° NNW 21:32:00 18° NNE 21:34:59 10° ENE visible
01 May - 23:41:14 10° WNW 23:45:13 43° SW 23:49:03 10° SE night (unlit)
02 May - 06:31:13 10° S 06:36:20 13° SSE 06:42:29 10° SE daylight
02 May - 08:41:02 10° SSW 08:54:39 43° SE 09:13:02 10° ENE daylight
02 May - 10:55:07 10° SW 11:13:12 85° NW 11:33:17 10° NE daylight
02 May - 13:14:44 10° W 13:32:46 39° NNW 13:48:25 10° NNE daylight
02 May - 15:44:39 10° NW 15:53:21 15° NNW 16:00:33 10° N daylight
02 May - 20:29:16 10° N 20:32:03 13° NNE 20:34:25 10° NE visible
02 May - 22:41:27 10° NW 22:46:17 79° NE 22:50:12 10° ESE night (unlit)
03 May - 07:42:11 10° SSW 07:53:08 30° SE 08:08:23 10° E daylight
03 May - 09:54:45 10° SW 10:11:01 76° SE 10:31:34 10° ENE daylight
03 May - 12:11:47 10° WSW 12:30:18 52° NW 12:48:19 10° NE daylight
03 May - 14:37:24 10° WNW 14:50:49 22° NNW 15:01:51 10° NNE daylight
03 May - 19:30:20 10° N 19:31:39 10° NNE 19:32:51 10° NNE visible
03 May - 21:41:42 10° NW 21:47:08 39° NNE 21:51:03 10° E visible
03 May - 23:57:13 10° WSW 23:59:55 17° SW 00:02:34 10° S night (unlit)
04 May - 06:44:07 10° S 06:51:53 19° SE 07:02:14 10° ESE daylight
04 May - 08:55:03 10° SW 09:09:10 59° SE 09:28:56 10° ENE daylight
04 May - 11:10:04 10° WSW 11:27:49 66° NW 11:47:36 10° NE daylight
04 May - 13:31:53 10° W 13:48:08 30° NNW 14:02:22 10° NNE daylight
04 May - 16:04:12 10° NW 16:09:58 12° NNW 16:15:00 10° N daylight
04 May - 20:41:50 10° NNW 20:47:33 25° NNE 20:51:34 10° E visible
04 May - 22:56:26 10° WNW 23:00:54 38° SW 23:04:35 10° SSE night (unlit)
05 May - 05:48:43 10° SSE 05:50:48 11° SSE 05:53:02 10° SE daylight
05 May - 07:55:58 10° SSW 08:07:47 42° SE 08:25:14 10° ENE daylight
05 May - 10:09:18 10° WSW 10:25:30 83° NW 10:46:13 10° NE daylight
05 May - 12:28:01 10° W 12:45:23 39° NNW 13:02:18 10° NNE daylight
05 May - 14:56:27 10° NW 15:07:10 17° NNW 15:16:10 10° NNE daylight
05 May - 17:27:20 10° N 17:29:07 10° N 17:30:47 10° N daylight
05 May - 19:41:41 10° NNW 19:47:27 19° NNE 19:51:39 10° ENE visible
05 May - 21:55:59 10° NW 22:01:58 87° SSW 22:06:05 10° SE visible
06 May - 06:57:32 10° SSW 07:06:49 28° SE 07:20:23 10° E daylight
06 May - 09:09:19 10° SW 09:23:35 78° SE 09:44:04 10° ENE daylight
06 May - 11:25:35 10° WSW 11:42:42 50° NNW 12:01:41 10° NE daylight
06 May - 13:50:00 10° WNW 14:04:07 23° NNW 14:16:31 10° NNE daylight
06 May - 16:21:46 10° NNW 16:26:53 12° N 16:31:19 10° NNE daylight
06 May - 18:41:01 10° NNW 18:46:51 16° NNE 18:51:16 10° NE visible
06 May - 20:55:34 10° NW 21:02:42 50° NNE 21:07:13 10° ESE visible
06 May - 23:12:38 10° WSW 23:15:26 16° SW 23:17:58 10° S night (unlit)
07 May - 06:00:03 10° S 06:06:08 17° SE 06:14:08 10° ESE daylight
07 May - 08:10:00 10° SW 08:22:11 59° SE 08:41:06 10° ENE daylight
07 May - 10:24:18 10° WSW 10:40:13 63° NW 11:00:28 10° NE daylight
07 May - 12:45:07 10° W 13:01:01 29° NNW 13:16:20 10° NNE daylight
07 May - 15:15:17 10° NW 15:24:01 15° N 15:31:26 10° NNE daylight
07 May - 17:39:30 10° NNW 17:45:37 14° N 17:50:28 10° NE daylight
07 May - 19:54:58 10° NW 20:02:57 33° NNE 20:07:59 10° E visible
07 May - 22:11:07 10° WNW 22:16:28 36° SW 22:20:22 10° SSE visible
